Hourly Weather Exeter

Today, 4 August, Wednesday

Time Temperature Precipitation Wind Pressure Humidity
00:00 +11°C° 0 mm 0 mps 752 mmHg 90%
01:00 +11°C° 0 mm 0 mps 752 mmHg 91%
02:00 +11°C° 0 mm 0 mps 752 mmHg 91%
03:00 +11°C° 0 mm 0 mps 752 mmHg 91%
04:00 +11°C° 0 mm 0 mps 752 mmHg 91%
05:00 +12°C° 0 mm 0 mps 752 mmHg 90%
06:00 +12°C° 0 mm 0 mps 752 mmHg 90%
07:00 +14°C° 0 mm 0 mps 752 mmHg 84%
08:00 +15°C° 0 mm 0 mps 752 mmHg 78%
09:00 +17°C° 0 mm 0 mps 752 mmHg 72%
10:00 +20°C° 0 mm 1 mps 752 mmHg 68%
11:00 +20°C° 0 mm 1 mps 752 mmHg 64%
12:00 +20°C° 0 mm 2 mps 752 mmHg 60%
13:00 +20°C° 0.1 mm 2 mps 752 mmHg 63%
14:00 +20°C° 0.1 mm 3 mps 752 mmHg 65%
15:00 +19°C° 0.1 mm 4 mps 752 mmHg 68%
16:00 +19°C° 0.2 mm 3 mps 752 mmHg 73%
17:00 +18°C° 0.2 mm 3 mps 752 mmHg 78%
18:00 +17°C° 0.2 mm 3 mps 752 mmHg 83%
19:00 +16°C° 0 mm 3 mps 751 mmHg 86%
20:00 +15°C° 0 mm 2 mps 751 mmHg 89%
21:00 +14°C° 0 mm 2 mps 751 mmHg 92%
22:00 +14°C° 0 mm 2 mps 751 mmHg 93%
23:00 +14°C° 0 mm 2 mps 751 mmHg 94%

Tomorrow, 5 August, Thursday

Time Temperature Precipitation Wind Pressure Humidity
00:00 +13°C° 0 mm 2 mps 750 mmHg 94%
01:00 +12°C° 0 mm 3 mps 750 mmHg 95%
02:00 +12°C° 0 mm 3 mps 749 mmHg 96%
03:00 +12°C° 0 mm 3 mps 748 mmHg 97%
04:00 +13°C° 0 mm 4 mps 748 mmHg 96%
05:00 +13°C° 0 mm 5 mps 747 mmHg 95%
06:00 +14°C° 0 mm 6 mps 747 mmHg 94%
07:00 +14°C° 0.1 mm 6 mps 746 mmHg 93%
08:00 +15°C° 0.1 mm 7 mps 746 mmHg 92%
09:00 +15°C° 0.1 mm 7 mps 745 mmHg 91%
10:00 +15°C° 0.3 mm 8 mps 744 mmHg 93%
11:00 +15°C° 0.3 mm 8 mps 744 mmHg 95%
12:00 +15°C° 0.3 mm 8 mps 743 mmHg 96%
13:00 +16°C° 0.7 mm 8 mps 743 mmHg 91%
14:00 +17°C° 0.7 mm 7 mps 742 mmHg 85%
15:00 +18°C° 0.7 mm 7 mps 742 mmHg 80%
16:00 +18°C° 0.2 mm 7 mps 741 mmHg 83%
17:00 +17°C° 0.2 mm 7 mps 741 mmHg 86%
18:00 +17°C° 0.2 mm 6 mps 741 mmHg 88%
19:00 +16°C° 0 mm 6 mps 741 mmHg 90%
20:00 +15°C° 0 mm 6 mps 741 mmHg 91%
21:00 +15°C° 0 mm 6 mps 741 mmHg 92%
22:00 +15°C° 0.1 mm 6 mps 741 mmHg 91%
23:00 +15°C° 0.1 mm 7 mps 741 mmHg 90%

Day after tomorrow, 6 August, Friday

Time Temperature Precipitation Wind Pressure Humidity
00:00 +15°C° 0.1 mm 7 mps 741 mmHg 89%
01:00 +15°C° 0.1 mm 7 mps 741 mmHg 89%
02:00 +15°C° 0.1 mm 8 mps 742 mmHg 89%
03:00 +13°C° 0.1 mm 9 mps 742 mmHg 89%
04:00 +13°C° 0 mm 8 mps 742 mmHg 88%
05:00 +13°C° 0 mm 8 mps 742 mmHg 86%
06:00 +13°C° 0 mm 8 mps 743 mmHg 85%
07:00 +15°C° 0 mm 8 mps 743 mmHg 81%
08:00 +16°C° 0 mm 8 mps 743 mmHg 77%
09:00 +17°C° 0 mm 8 mps 744 mmHg 73%
10:00 +17°C° 0.1 mm 8 mps 744 mmHg 73%
11:00 +17°C° 0.1 mm 8 mps 744 mmHg 72%
12:00 +17°C° 0.1 mm 8 mps 744 mmHg 71%
13:00 +17°C° 0.3 mm 8 mps 744 mmHg 73%
14:00 +17°C° 0.3 mm 8 mps 743 mmHg 75%
15:00 +17°C° 0.3 mm 8 mps 743 mmHg 77%
16:00 +16°C° 0.3 mm 7 mps 743 mmHg 80%
17:00 +16°C° 0.3 mm 7 mps 743 mmHg 83%
18:00 +15°C° 0.3 mm 7 mps 743 mmHg 86%
19:00 +15°C° 0.1 mm 6 mps 742 mmHg 88%
20:00 +14°C° 0.1 mm 6 mps 742 mmHg 91%
21:00 +13°C° 0.1 mm 6 mps 742 mmHg 93%
22:00 +13°C° 0.2 mm 5 mps 742 mmHg 94%
23:00 +13°C° 0.2 mm 5 mps 741 mmHg 94%

7 August, Saturday

Time Temperature Precipitation Wind Pressure Humidity
00:00 +13°C° 0.2 mm 5 mps 741 mmHg 94%
01:00 +13°C° 0 mm 5 mps 741 mmHg 94%
02:00 +13°C° 0 mm 5 mps 741 mmHg 94%
03:00 +13°C° 0 mm 5 mps 741 mmHg 94%
04:00 +13°C° 0.2 mm 6 mps 741 mmHg 94%
05:00 +13°C° 0.2 mm 6 mps 741 mmHg 93%
06:00 +12°C° 0.2 mm 7 mps 741 mmHg 93%
07:00 +14°C° 0.1 mm 7 mps 742 mmHg 88%
08:00 +15°C° 0.1 mm 6 mps 742 mmHg 84%
09:00 +16°C° 0.1 mm 6 mps 742 mmHg 79%
10:00 +17°C° 0.1 mm 7 mps 743 mmHg 75%
11:00 +18°C° 0.1 mm 7 mps 743 mmHg 71%
12:00 +18°C° 0.1 mm 7 mps 743 mmHg 67%
13:00 +18°C° 0.3 mm 8 mps 744 mmHg 71%
14:00 +18°C° 0.3 mm 8 mps 744 mmHg 75%
15:00 +17°C° 0.3 mm 8 mps 744 mmHg 78%
16:00 +17°C° 0.2 mm 7 mps 745 mmHg 79%
17:00 +16°C° 0.2 mm 7 mps 745 mmHg 79%
18:00 +16°C° 0.2 mm 6 mps 746 mmHg 80%
19:00 +15°C° 0 mm 6 mps 746 mmHg 82%
20:00 +14°C° 0 mm 6 mps 747 mmHg 84%
21:00 +13°C° 0 mm 5 mps 748 mmHg 86%
22:00 +13°C° 0 mm 5 mps 748 mmHg 88%
23:00 +13°C° 0 mm 5 mps 748 mmHg 90%

8 August, Sunday

Time Temperature Precipitation Wind Pressure Humidity
00:00 +13°C° 0 mm 5 mps 748 mmHg 92%
01:00 +12°C° 0 mm 5 mps 749 mmHg 92%
02:00 +12°C° 0 mm 4 mps 749 mmHg 93%
03:00 +12°C° 0 mm 4 mps 749 mmHg 94%
04:00 +12°C° 0 mm 4 mps 749 mmHg 94%
05:00 +12°C° 0 mm 4 mps 749 mmHg 93%
06:00 +12°C° 0 mm 4 mps 749 mmHg 93%
07:00 +14°C° 0 mm 5 mps 749 mmHg 86%
08:00 +15°C° 0 mm 6 mps 749 mmHg 80%
09:00 +16°C° 0 mm 6 mps 750 mmHg 74%
10:00 +16°C° 0.7 mm 7 mps 750 mmHg 80%
11:00 +15°C° 0.7 mm 7 mps 750 mmHg 87%
12:00 +14°C° 0.7 mm 7 mps 750 mmHg 94%
13:00 +14°C° 0.9 mm 7 mps 750 mmHg 93%
14:00 +15°C° 0.9 mm 7 mps 750 mmHg 92%
15:00 +15°C° 0.9 mm 7 mps 750 mmHg 91%
16:00 +15°C° 0.3 mm 7 mps 750 mmHg 91%
17:00 +15°C° 0.3 mm 8 mps 750 mmHg 91%
18:00 +16°C° 0.3 mm 8 mps 750 mmHg 91%
19:00 +16°C° 0.1 mm 8 mps 751 mmHg 91%
20:00 +15°C° 0.1 mm 7 mps 751 mmHg 91%
21:00 +15°C° 0.1 mm 7 mps 752 mmHg 91%
22:00 +14°C° 0 mm 7 mps 752 mmHg 92%
23:00 +14°C° 0 mm 6 mps 752 mmHg 92%

9 August, Monday

Time Temperature Precipitation Wind Pressure Humidity
00:00 +14°C° 0 mm 6 mps 752 mmHg 93%
01:00 +13°C° 0 mm 6 mps 752 mmHg 93%
02:00 +13°C° 0 mm 6 mps 753 mmHg 93%
03:00 +13°C° 0 mm 5 mps 753 mmHg 93%
04:00 +13°C° 0 mm 5 mps 753 mmHg 94%
05:00 +13°C° 0 mm 5 mps 753 mmHg 94%
06:00 +14°C° 0 mm 5 mps 754 mmHg 94%
07:00 +15°C° 0 mm 5 mps 754 mmHg 89%
08:00 +16°C° 0 mm 5 mps 755 mmHg 83%
09:00 +17°C° 0 mm 5 mps 755 mmHg 77%
10:00 +19°C° 0 mm 5 mps 756 mmHg 73%
11:00 +20°C° 0 mm 5 mps 756 mmHg 68%
12:00 +20°C° 0 mm 5 mps 756 mmHg 64%
13:00 +20°C° 0 mm 6 mps 757 mmHg 64%
14:00 +20°C° 0 mm 6 mps 757 mmHg 65%
15:00 +20°C° 0 mm 6 mps 757 mmHg 66%
16:00 +19°C° 0 mm 5 mps 757 mmHg 70%
17:00 +19°C° 0 mm 5 mps 758 mmHg 75%
18:00 +18°C° 0 mm 4 mps 758 mmHg 79%
19:00 +17°C° 0 mm 4 mps 758 mmHg 84%
20:00 +16°C° 0 mm 3 mps 759 mmHg 89%
21:00 +14°C° 0 mm 2 mps 759 mmHg 95%
22:00 +14°C° 0 mm 2 mps 759 mmHg 95%
23:00 +14°C° 0 mm 2 mps 759 mmHg 95%
Show more

We Need Your Consent

Meteoprog and our Service Providers may store and access personal data such as cookies, device identifiers or other similar technologies on your device and process such data to personalise content and ads, as well as provide social media features and to analyse the traffic.

  • Store and/or access information on your device

    Cookies, device identifiers or other information can be stored or accessed on your device for the purposes indicated above.

  • Personalised ads and content, ad and content measurement, audience insights, and products development

    Ads and content can be personalised based on a profile. More data can be added to better personalise ads and content. Ad and content performance can be measured. Insights about the audience who saw the ads and content can be derived. Such data can be used to develop or improve user’s experience, systems and software.

By clicking ‘I Agree’ you will allow the use of indicated cookies, device identifiers, web beacons or other similar technologies. Your settings can be changed in the browser on your device.

For certain purposes, legitimate interests may be relied on, rather than consent. You can read more about this in our Privacy and Cookie Policy.